FW0984 Weather Reports


Display with metric or nautical units.
time (UTC)temp
F
wind
direction
speed
MPH
gust
MPH
rain 1hr
in
rain 24hr
in
rain mn
in
humidity
%
barometer
mb
20260510163031 67 69 1.0 4.0 0.00 0.01 0.01 50 1017.6
20260510161528 67 58 3.0 6.0 0.00 0.01 0.01 49 1017.7
20260510160033 67 103 1.0 5.0 0.00 0.01 0.01 52 1017.3
20260510154524 66 27 3.0 5.0 0.00 0.01 0.01 50 1017.6
20260510153018 65 322 1.0 5.0 0.00 0.01 0.01 52 1017.4
20260510151523 65 61 0.0 0.0 0.00 0.01 0.01 57 1017.2
20260510150010 63 129 0.0 0.0 0.00 0.01 0.01 59 1017.1
20260510144507 61 132 0.0 0.0 0.01 0.01 0.01 62 1017.0
20260510143009 61 90 0.0 0.0 0.01 0.01 0.01 61 1016.8
20260510141506 61 95 0.0 0.0 0.01 0.01 0.01 63 1016.7
20260510140100 61 80 0.0 0.0 0.01 0.01 0.01 64 1016.4
20260510134605 59 108 0.0 0.0 0.00 0.00 0.00 70 1016.1
20260510133050 58 119 0.0 0.0 0.00 0.00 0.00 78 1015.8
20260510131548 57 25 0.0 0.0 0.00 0.00 0.00 78 1015.3
20260510130047 56 98 0.0 0.0 0.00 0.00 0.00 85 1015.4
20260510124543 56 80 0.0 0.0 0.00 0.00 0.00 90 1015.2
20260510123043 55 74 0.0 0.0 0.00 0.00 0.00 93 1014.8
20260510121542 54 106 0.0 0.0 0.00 0.00 0.00 93 1014.6
20260510120037 54 106 0.0 0.0 0.00 0.00 0.00 93 1014.4
20260510114600 54 106 0.0 0.0 0.00 0.01 0.00 93 1014.3
20260510113050 53 23 0.0 0.0 0.00 0.01 0.00 93 1014.5
20260510111535 53 38 0.0 0.0 0.00 0.01 0.00 92 1014.5
20260510110039 53 38 0.0 0.0 0.00 0.01 0.00 92 1014.0
20260510104525 53 38 0.0 0.0 0.00 0.06 0.00 91 1013.4
20260510103024 53 26 0.0 0.0 0.00 0.06 0.00 90 1013.5
20260510101523 53 26 0.0 0.0 0.00 0.06 0.00 90 1013.0
20260510100030 53 26 0.0 0.0 0.00 0.06 0.00 90 1012.8
20260510094526 53 26 0.0 0.0 0.00 0.09 0.00 90 1012.8
20260510093018 53 26 0.0 0.0 0.00 0.09 0.00 89 1012.6
20260510091514 54 26 0.0 0.0 0.00 0.09 0.00 88 1012.5
20260510090012 54 26 0.0 0.0 0.00 0.09 0.00 87 1012.4
20260510084509 55 26 0.0 0.0 0.00 0.12 0.00 85 1012.3
20260510083013 55 26 0.0 0.0 0.00 0.12 0.00 85 1012.1
20260510081506 55 26 0.0 0.0 0.00 0.12 0.00 84 1012.0
20260510080005 56 92 0.0 4.0 0.00 0.12 0.00 85 1011.8
20260510074504 56 101 0.0 4.0 0.00 0.14 0.00 84 1011.4
20260510073005 56 269 0.0 0.0 0.00 0.14 0.00 85 1011.0
20260510071604 56 269 0.0 0.0 0.00 0.14 0.00 83 1011.1
20260510070109 57 269 0.0 0.0 0.00 0.14 0.00 81 1011.2
20260510064602 57 269 0.0 0.0 0.00 0.15 0.00 81 1011.2
20260510063101 57 269 0.0 0.0 0.00 0.15 0.00 82 1011.4
20260510061557 57 269 0.0 0.0 0.00 0.15 0.00 83 1011.5
20260510060059 57 269 0.0 0.0 0.00 0.15 0.00 82 1011.4
20260510054600 56 269 0.0 0.0 0.00 0.16 0.00 81 1011.4
20260510053052 56 269 0.0 0.0 0.00 0.16 0.00 82 1011.4
20260510051551 57 269 0.0 0.0 0.00 0.16 0.00 83 1011.3
20260510050048 57 269 0.0 0.0 0.00 0.16 0.00 80 1011.3
20260510044544 57 269 0.0 0.0 0.00 0.16 0.00 80 1011.4
20260510043042 58 269 0.0 0.0 0.00 0.16 0.00 78 1011.3
20260510041548 58 269 0.0 0.0 0.00 0.16 0.00 78 1011.3
20260510040038 59 269 0.0 0.0 0.00 0.16 0.00 76 1011.3
20260510034536 59 269 0.0 0.0 0.00 0.16 0.16 75 1011.2
20260510033041 60 269 0.0 0.0 0.00 0.16 0.16 73 1011.3
20260510031535 61 269 0.0 0.0 0.00 0.16 0.16 73 1011.2
20260510030033 61 269 0.0 0.0 0.00 0.16 0.16 70 1011.0
20260510024531 62 269 0.0 0.0 0.00 0.16 0.16 69 1010.8
20260510023029 63 269 0.0 0.0 0.00 0.16 0.16 68 1010.8
20260510021535 64 269 0.0 0.0 0.00 0.16 0.16 67 1010.6
20260510020030 64 269 0.0 0.0 0.00 0.16 0.16 66 1010.4
20260510014525 65 269 0.0 0.0 0.00 0.16 0.16 64 1010.2
20260510013025 66 269 0.0 0.0 0.00 0.16 0.16 62 1010.0
20260510011523 67 269 0.0 0.0 0.00 0.16 0.16 59 1009.7
20260510010023 68 269 0.0 0.0 0.00 0.16 0.16 57 1009.5
20260510004522 69 269 0.0 0.0 0.00 0.16 0.16 59 1009.3
20260510003022 69 311 0.0 0.0 0.00 0.16 0.16 56 1009.0
20260510001534 70 281 0.0 2.0 0.00 0.16 0.16 55 1008.8
20260510000022 70 248 0.0 0.0 0.00 0.16 0.16 54 1008.5
20260509234520 71 248 0.0 2.0 0.00 0.16 0.16 53 1008.4
20260509233020 71 260 0.0 2.0 0.00 0.16 0.16 53 1008.4
20260509231518 71 251 0.0 2.0 0.00 0.16 0.16 51 1008.3
20260509230020 71 261 1.0 3.0 0.00 0.16 0.16 51 1008.2
20260509224518 72 259 0.0 2.0 0.00 0.16 0.16 53 1008.2
20260509223017 72 261 0.0 2.0 0.00 0.16 0.16 48 1008.1
20260509221515 72 269 0.0 3.0 0.00 0.16 0.16 54 1008.2
20260509220014 73 244 0.0 2.0 0.00 0.16 0.16 54 1008.2
20260509214520 72 269 0.0 2.0 0.00 0.16 0.16 51 1008.3
20260509213013 73 262 1.0 3.0 0.00 0.16 0.16 53 1008.3
20260509211510 73 262 0.0 4.0 0.00 0.16 0.16 52 1008.4
20260509210012 73 263 0.0 2.0 0.00 0.16 0.16 52 1008.4
20260509204518 73 267 0.0 6.0 0.00 0.16 0.16 52 1008.4
20260509203009 73 269 1.0 3.0 0.00 0.16 0.16 52 1008.6
20260509201503 73 263 0.0 3.0 0.00 0.16 0.16 55 1008.7
20260509200001 72 247 0.0 3.0 0.00 0.16 0.16 57 1008.9
20260509194558 71 244 0.0 2.0 0.00 0.16 0.16 54 1009.0
20260509193057 70 252 1.0 2.0 0.00 0.16 0.16 58 1009.2
20260509191600 69 262 1.0 3.0 0.00 0.16 0.16 58 1009.4
20260509190056 69 260 0.0 6.0 0.00 0.16 0.16 60 1009.5
20260509184548 69 245 1.0 3.0 0.00 0.16 0.16 62 1009.5
20260509183047 69 259 1.0 4.0 0.00 0.16 0.16 62 1009.5
20260509181545 68 252 1.0 3.0 0.00 0.16 0.16 60 1009.7
20260509180043 68 265 1.0 3.0 0.00 0.16 0.16 61 1009.6
20260509174552 67 252 0.0 1.0 0.00 0.16 0.16 66 1009.7
20260509173045 66 71 0.0 2.0 0.00 0.16 0.16 70 1009.8
20260509171544 65 245 1.0 2.0 0.00 0.16 0.16 72 1009.8
20260509170041 66 257 1.0 3.0 0.00 0.16 0.16 68 1010.0
20260509164536 64 248 1.0 2.0 0.00 0.16 0.16 73 1010.1